When you browse on this site, cookies collect data to enhance your experience and personalize the content and advertising you see.
Visit our Privacy Policy to learn more. By continuing to use the site, you agree to this use of cookies and data.

Hourly Weather Teshilovo

Today, 10 July, Friday

Time Temperature Precipitation Wind Pressure Humidity
00:00 +10°C° 0 mm 2 mps 750 mmHg 90%
01:00 +10°C° 0 mm 2 mps 751 mmHg 90%
02:00 +9°C° 0 mm 2 mps 751 mmHg 90%
03:00 +10°C° 0 mm 2 mps 751 mmHg 88%
04:00 +10°C° 0 mm 2 mps 751 mmHg 86%
05:00 +12°C° 0 mm 2 mps 752 mmHg 84%
06:00 +14°C° 0 mm 2 mps 752 mmHg 76%
07:00 +16°C° 0 mm 2 mps 752 mmHg 68%
08:00 +18°C° 0 mm 2 mps 752 mmHg 60%
09:00 +19°C° 0 mm 2 mps 752 mmHg 56%
10:00 +20°C° 0 mm 2 mps 752 mmHg 51%
11:00 +21°C° 0 mm 2 mps 752 mmHg 46%
12:00 +21°C° 0 mm 3 mps 752 mmHg 46%
13:00 +22°C° 0 mm 3 mps 752 mmHg 46%
14:00 +22°C° 0 mm 3 mps 752 mmHg 47%
15:00 +22°C° 0 mm 3 mps 752 mmHg 49%
16:00 +21°C° 0 mm 3 mps 752 mmHg 52%
17:00 +21°C° 0 mm 3 mps 752 mmHg 55%
18:00 +20°C° 0 mm 2 mps 752 mmHg 60%
19:00 +19°C° 0 mm 2 mps 752 mmHg 66%
20:00 +17°C° 0 mm 2 mps 751 mmHg 71%
21:00 +17°C° 0 mm 2 mps 751 mmHg 70%
22:00 +18°C° 0 mm 3 mps 751 mmHg 68%
23:00 +18°C° 0 mm 4 mps 751 mmHg 67%

Tomorrow, 11 July, Saturday

Time Temperature Precipitation Wind Pressure Humidity
00:00 +18°C° 0 mm 4 mps 751 mmHg 69%
01:00 +18°C° 0 mm 4 mps 751 mmHg 72%
02:00 +17°C° 0 mm 4 mps 751 mmHg 74%
03:00 +17°C° 0.1 mm 4 mps 750 mmHg 79%
04:00 +17°C° 0.1 mm 4 mps 750 mmHg 84%
05:00 +17°C° 0.1 mm 4 mps 750 mmHg 88%
06:00 +18°C° 0 mm 4 mps 750 mmHg 85%
07:00 +19°C° 0 mm 5 mps 750 mmHg 82%
08:00 +20°C° 0 mm 5 mps 750 mmHg 79%
09:00 +22°C° 0 mm 5 mps 750 mmHg 74%
10:00 +24°C° 0 mm 6 mps 750 mmHg 68%
11:00 +27°C° 0 mm 6 mps 750 mmHg 63%
12:00 +28°C° 0 mm 6 mps 749 mmHg 61%
13:00 +28°C° 0 mm 6 mps 749 mmHg 60%
14:00 +29°C° 0 mm 6 mps 749 mmHg 58%
15:00 +28°C° 0.4 mm 6 mps 749 mmHg 63%
16:00 +28°C° 0.4 mm 5 mps 749 mmHg 69%
17:00 +27°C° 0.4 mm 5 mps 749 mmHg 74%
18:00 +26°C° 1.4 mm 4 mps 749 mmHg 80%
19:00 +23°C° 1.4 mm 4 mps 749 mmHg 86%
20:00 +22°C° 1.4 mm 3 mps 749 mmHg 92%
21:00 +21°C° 0.2 mm 3 mps 750 mmHg 93%
22:00 +21°C° 0.2 mm 2 mps 750 mmHg 94%
23:00 +20°C° 0.2 mm 2 mps 750 mmHg 95%

Day after tomorrow, 12 July, Sunday

Time Temperature Precipitation Wind Pressure Humidity
00:00 +19°C° 0 mm 2 mps 750 mmHg 94%
01:00 +17°C° 0 mm 2 mps 751 mmHg 93%
02:00 +16°C° 0 mm 2 mps 751 mmHg 92%
03:00 +16°C° 0 mm 1 mps 751 mmHg 91%
04:00 +15°C° 0 mm 1 mps 751 mmHg 90%
05:00 +15°C° 0 mm 1 mps 751 mmHg 89%
06:00 +16°C° 0 mm 1 mps 751 mmHg 82%
07:00 +19°C° 0 mm 1 mps 751 mmHg 75%
08:00 +20°C° 0 mm 1 mps 751 mmHg 68%
09:00 +21°C° 0 mm 1 mps 751 mmHg 65%
10:00 +22°C° 0 mm 1 mps 751 mmHg 61%
11:00 +23°C° 0 mm 1 mps 751 mmHg 58%
12:00 +23°C° 0 mm 2 mps 751 mmHg 59%
13:00 +23°C° 0 mm 2 mps 751 mmHg 60%
14:00 +23°C° 0 mm 2 mps 751 mmHg 61%
15:00 +21°C° 0 mm 3 mps 750 mmHg 64%
16:00 +20°C° 0 mm 3 mps 750 mmHg 67%
17:00 +19°C° 0 mm 3 mps 750 mmHg 70%
18:00 +18°C° 0 mm 3 mps 750 mmHg 72%
19:00 +18°C° 0 mm 3 mps 750 mmHg 74%
20:00 +17°C° 0 mm 3 mps 750 mmHg 76%
21:00 +16°C° 0.1 mm 3 mps 749 mmHg 81%
22:00 +16°C° 0.1 mm 2 mps 749 mmHg 85%
23:00 +15°C° 0.1 mm 2 mps 749 mmHg 89%

13 July, Monday

Time Temperature Precipitation Wind Pressure Humidity
00:00 +15°C° 0.5 mm 2 mps 749 mmHg 91%
01:00 +14°C° 0.5 mm 2 mps 748 mmHg 93%
02:00 +13°C° 0.5 mm 3 mps 748 mmHg 95%
03:00 +13°C° 0.2 mm 3 mps 748 mmHg 95%
04:00 +14°C° 0.2 mm 3 mps 747 mmHg 96%
05:00 +14°C° 0.2 mm 3 mps 747 mmHg 96%
06:00 +16°C° 0 mm 2 mps 747 mmHg 95%
07:00 +17°C° 0 mm 2 mps 746 mmHg 95%
08:00 +18°C° 0 mm 2 mps 746 mmHg 94%
09:00 +20°C° 0 mm 1 mps 746 mmHg 92%
10:00 +21°C° 0 mm 1 mps 745 mmHg 89%
11:00 +22°C° 0 mm 1 mps 745 mmHg 87%
12:00 +23°C° 0.2 mm 2 mps 745 mmHg 84%
13:00 +24°C° 0.2 mm 2 mps 744 mmHg 81%
14:00 +25°C° 0.2 mm 2 mps 744 mmHg 77%
15:00 +24°C° 0.8 mm 2 mps 743 mmHg 81%
16:00 +24°C° 0.8 mm 3 mps 743 mmHg 84%
17:00 +24°C° 0.8 mm 3 mps 742 mmHg 87%
18:00 +22°C° 0.8 mm 3 mps 742 mmHg 89%
19:00 +21°C° 0.8 mm 3 mps 742 mmHg 91%
20:00 +20°C° 0.8 mm 3 mps 742 mmHg 93%
21:00 +19°C° 1.9 mm 2 mps 741 mmHg 95%
22:00 +19°C° 1.9 mm 2 mps 741 mmHg 96%
23:00 +19°C° 1.9 mm 2 mps 740 mmHg 98%

14 July, Tuesday

Time Temperature Precipitation Wind Pressure Humidity
00:00 +18°C° 0.5 mm 2 mps 740 mmHg 98%
01:00 +18°C° 0.5 mm 3 mps 739 mmHg 98%
02:00 +18°C° 0.5 mm 3 mps 739 mmHg 98%
03:00 +18°C° 0.3 mm 3 mps 738 mmHg 98%
04:00 +18°C° 0.3 mm 3 mps 738 mmHg 98%
05:00 +18°C° 0.3 mm 2 mps 737 mmHg 98%
06:00 +19°C° 0.6 mm 2 mps 737 mmHg 98%
07:00 +19°C° 0.6 mm 2 mps 737 mmHg 98%
08:00 +21°C° 0.6 mm 1 mps 737 mmHg 97%
09:00 +21°C° 0.5 mm 1 mps 737 mmHg 95%
10:00 +22°C° 0.5 mm 1 mps 738 mmHg 93%
11:00 +21°C° 0.5 mm 2 mps 738 mmHg 91%
12:00 +21°C° 0.7 mm 2 mps 738 mmHg 90%
13:00 +21°C° 0.7 mm 2 mps 737 mmHg 89%
14:00 +21°C° 0.7 mm 3 mps 737 mmHg 88%
15:00 +21°C° 0.1 mm 3 mps 737 mmHg 88%
16:00 +21°C° 0.1 mm 2 mps 737 mmHg 88%
17:00 +20°C° 0.1 mm 2 mps 737 mmHg 88%
18:00 +20°C° 0 mm 2 mps 737 mmHg 90%
19:00 +19°C° 0 mm 2 mps 737 mmHg 93%
20:00 +18°C° 0 mm 2 mps 737 mmHg 96%
21:00 +17°C° 0 mm 2 mps 737 mmHg 96%
22:00 +17°C° 0 mm 2 mps 736 mmHg 97%
23:00 +16°C° 0 mm 2 mps 736 mmHg 97%

15 July, Wednesday

Time Temperature Precipitation Wind Pressure Humidity
00:00 +16°C° 0.1 mm 2 mps 736 mmHg 97%
01:00 +16°C° 0.1 mm 2 mps 736 mmHg 97%
02:00 +16°C° 0.1 mm 2 mps 736 mmHg 96%
03:00 +16°C° 0.5 mm 2 mps 736 mmHg 96%
04:00 +16°C° 0.5 mm 2 mps 736 mmHg 96%
05:00 +16°C° 0.5 mm 2 mps 736 mmHg 96%
06:00 +17°C° 0.8 mm 2 mps 736 mmHg 95%
07:00 +17°C° 0.8 mm 3 mps 736 mmHg 94%
08:00 +17°C° 0.8 mm 3 mps 736 mmHg 94%
09:00 +17°C° 0.9 mm 3 mps 736 mmHg 94%
10:00 +17°C° 0.9 mm 3 mps 736 mmHg 95%
11:00 +17°C° 0.9 mm 3 mps 736 mmHg 96%
12:00 +15°C° 1.1 mm 4 mps 737 mmHg 96%
13:00 +15°C° 1.1 mm 4 mps 737 mmHg 96%
14:00 +15°C° 1.1 mm 4 mps 738 mmHg 95%
15:00 +14°C° 0.5 mm 5 mps 738 mmHg 95%
16:00 +14°C° 0.5 mm 5 mps 738 mmHg 96%
17:00 +13°C° 0.5 mm 5 mps 739 mmHg 96%
18:00 +13°C° 0.4 mm 5 mps 739 mmHg 96%
19:00 +13°C° 0.4 mm 5 mps 740 mmHg 96%
20:00 +13°C° 0.4 mm 5 mps 740 mmHg 96%
21:00 +13°C° 0.1 mm 5 mps 740 mmHg 95%
22:00 +13°C° 0.1 mm 5 mps 741 mmHg 95%
23:00 +13°C° 0.1 mm 5 mps 741 mmHg 95%
Show more